Zurück zum Katalog

BREEZE-M R/B

AktivHEO
NORAD 37844·ROCKET BODY·🇷🇺 Russia

Gestartet Oct 19, 2011 von Baikonur Cosmodrome

Loading…

Nächste Überflüge (nächste 24 Stunden)

TLE

AktuellSource: Space-Track

Epoche: Sep 13, 2026, 02:42 UTC

1 37844U 11059B   26256.11274957 -.00000188  00000-0  00000-0 0  9997
2 37844  30.9741  19.2405 6638875   3.1584 136.2989  2.27322973123682

Verfolge BREEZE-M R/B in Echtzeit mit AllMySat

Download on the App Store